User: anonymous   Login
Location: Unspecified
(0.0000°N, 0.0000°E)
Time: 20:18:06
(UTC+00:00)
Language:

STARLINK-30566 - Orbit

View from above orbital plane
View from above orbital plane
View from above satellite
View from above satellite

Ground track
Ground track

The orbit is defined by the following mean orbital elements,

1 58054U          26145.46473788 +.00000000 +00000-0 +21851-2 0 00009
2 58054  43.0000 313.3076 0002946 290.9573  69.0963 15.27606069    05
Epoch (UTC): 25 May 2026 11:09:13
Eccentricity: 0.0002946
inclination: 43.0000°
perigee height: 481 km
apogee height: 485 km
right ascension of ascending node: 313.3076°
argument of perigee: 290.9573°
revolutions per day: 15.27606069
mean anomaly at epoch: 69.0963°

The dashed part of the orbit path shows where the satellite is in the earth's shadow,  

DLR